Location: Val-d'Or
(48.1170°N, 77.7670°W)
Time: 06:17:25
(UTC-04:00)

ISS - Pass Details

Date: 23 May 2018
Orbit: 402 x 407 km, 51.6° (Epoch: 24 May)

Event Time Altitude Azimuth Distance (km) Brightness Sun altitude
Rises 04:00:11 0° 287° (WNW) 2,318 -0.2 -11.2°
Reaches altitude 10° 04:02:36 10° 270° (W) 1,455 -1.4 -11.0°
Maximum altitude 04:05:05 20° 220° (SW) 984 -2.5 -10.7°
Drops below altitude 10° 04:07:34 10° 170° (S) 1,448 -1.4 -10.4°
Sets 04:09:58 0° 153° (SSE) 2,303 -0.2 -10.1°
